Weather History for Charleston, SC

Change the Weather History Date:

Monday, March 24, 2014

  Actual Average (KCHS) Record (KCHS)
Temperature  
Mean Temperature 48 °F 60 °F  
Max Temperature 53 °F 72 °F 86 °F (1945)
Min Temperature 44 °F 48 °F 31 °F (1960)
Degree Days  
Heating Degree Days 16 6  
Month to date heating degree days 202  
Since 1 July heating degree days 1838  
Cooling Degree Days 0 1  
Month to date cooling degree days 22  
Year to date cooling degree days 29  
Moisture  
Dew Point 42 °F    
Average Humidity 72    
Maximum Humidity 87    
Minimum Humidity 58    
Precipitation  
Precipitation 0.00 in 0.12 in 3.00 in (2013)
Month to date precipitation 2.85  
Year to date precipitation 9.52  
Sea Level Pressure  
Sea Level Pressure 30.15 in    
Wind  
Wind Speed 12 mph (NE)    
Max Wind Speed 20 mph    
Max Gust Speed 24 mph    
Visibility 10 miles    
Events      
T = Trace of Precipitation, MM = Missing Value Source: NWS Daily Summary

Daily Weather History Graph

Daily Weather History Graph

Search for Another Location

Airport:

Trip Planner

Search our weather history database for the weather conditions in past years. The results will help you decide how hot, cold, wet, or windy it might be!

Date:

Astronomy

Mar. 24, 2014 Rise Set
Actual Time 7:18 AM EDT 7:34 PM EDT
Civil Twilight 6:53 AM EDT 7:59 PM EDT
Nautical Twilight 6:25 AM EDT 8:27 PM EDT
Astronomical Twilight 5:56 AM EDT 8:57 PM EDT
Moon 2:29 AM EDT (3/24) 1:15 PM EDT (3/24)
Length of Visible Light 13h 05m
Length of Day
12h 15m
Last Quarter, 43% of the Moon is Illuminated
Mar 24
Last Quarter
Mar 30
New
Apr 7
First Quarter
Apr 15
Full
Apr 22
Last Quarter

Hourly Weather History & Observations

Time (EDT) Temp. Windchill Dew Point Humidity Pressure Visibility Wind Dir Wind Speed Gust Speed Precip Events Conditions
12:15 AM 53.6 °F - 48.2 °F 82% 30.08 in 10.0 mi North 11.5 mph - 0.00 in   Overcast
12:35 AM 53.6 °F - 48.2 °F 82% 30.09 in 10.0 mi North 15.0 mph - 0.00 in   Overcast
12:55 AM 53.6 °F - 48.2 °F 82% 30.09 in 10.0 mi North 11.5 mph 17.3 mph 0.00 in   Overcast
1:15 AM 53.6 °F - 46.4 °F 77% 30.10 in 10.0 mi North 9.2 mph - 0.00 in   Mostly Cloudy
1:35 AM 53.6 °F - 46.4 °F 77% 30.10 in 10.0 mi NNE 11.5 mph - 0.00 in   Overcast
1:55 AM 51.8 °F - 44.6 °F 76% 30.10 in 10.0 mi NNE 15.0 mph - 0.00 in   Overcast
2:15 AM 51.8 °F - 44.6 °F 76% 30.11 in 10.0 mi NNE 15.0 mph - 0.00 in   Overcast
2:35 AM 51.8 °F - 44.6 °F 76% 30.11 in 10.0 mi NNE 11.5 mph - 0.00 in   Overcast
2:55 AM 51.8 °F - 44.6 °F 76% 30.11 in 10.0 mi NNE 12.7 mph - 0.00 in   Overcast
3:15 AM 51.8 °F - 44.6 °F 76% 30.12 in 10.0 mi NNE 6.9 mph - 0.00 in   Overcast
3:35 AM 50.0 °F - 44.6 °F 82% 30.12 in 10.0 mi NNE 8.1 mph - 0.00 in   Partly Cloudy
3:55 AM 50.0 °F - 44.6 °F 82% 30.12 in 10.0 mi NNE 9.2 mph - 0.00 in   Clear
4:15 AM 50.0 °F - 42.8 °F 76% 30.13 in 10.0 mi NNE 10.4 mph - 0.00 in   Partly Cloudy
4:35 AM 50.0 °F - 42.8 °F 76% 30.14 in 10.0 mi NNE 5.8 mph - 0.00 in   Mostly Cloudy
4:55 AM 50.0 °F - 42.8 °F 76% 30.15 in 10.0 mi North 9.2 mph - 0.00 in   Overcast
5:15 AM 48.2 °F - 42.8 °F 82% 30.15 in 10.0 mi NNE 9.2 mph - 0.00 in   Mostly Cloudy
5:35 AM 48.2 °F - 42.8 °F 82% 30.15 in 10.0 mi NNE 13.8 mph 17.3 mph 0.00 in   Scattered Clouds
5:55 AM 46.4 °F 40.1 °F 42.8 °F 87% 30.16 in 10.0 mi NNE 15.0 mph 23.0 mph 0.00 in   Clear
6:15 AM 46.4 °F 41.1 °F 42.8 °F 87% 30.17 in 10.0 mi NNE 11.5 mph 16.1 mph 0.00 in   Clear
6:35 AM 46.4 °F 42.4 °F 41.0 °F 81% 30.18 in 10.0 mi NE 8.1 mph 20.7 mph 0.00 in   Clear
6:55 AM 46.4 °F 40.7 °F 41.0 °F 81% 30.19 in 10.0 mi NNE 12.7 mph - 0.00 in   Clear
7:15 AM 44.6 °F 39.7 °F 39.2 °F 81% 30.19 in 10.0 mi NNE 9.2 mph - 0.00 in   Clear
7:35 AM 44.6 °F 38.8 °F 39.2 °F 81% 30.19 in 9.0 mi NE 11.5 mph 19.6 mph 0.00 in   Clear
7:55 AM 44.6 °F 39.7 °F 41.0 °F 87% 30.20 in 9.0 mi NNE 9.2 mph 16.1 mph 0.00 in   Clear
8:15 AM 44.6 °F 40.7 °F 41.0 °F 87% 30.21 in 8.0 mi NE 6.9 mph - 0.00 in   Clear
8:35 AM 46.4 °F 42.4 °F 42.8 °F 87% 30.21 in 8.0 mi NNE 8.1 mph - 0.00 in   Clear
8:55 AM 46.4 °F 40.7 °F 42.8 °F 87% 30.22 in 7.0 mi NNE 12.7 mph 16.1 mph 0.00 in   Clear
9:15 AM 46.4 °F 41.5 °F 42.8 °F 87% 30.22 in 7.0 mi NE 10.4 mph - 0.00 in   Clear
9:35 AM 48.2 °F - 42.8 °F 82% 30.22 in 8.0 mi NE 11.5 mph 20.7 mph 0.00 in   Clear
9:55 AM 48.2 °F - 42.8 °F 82% 30.22 in 8.0 mi NE 11.5 mph - 0.00 in   Clear
10:15 AM 50.0 °F - 41.0 °F 71% 30.22 in 9.0 mi NE 15.0 mph 21.9 mph 0.00 in   Clear
10:35 AM 51.8 °F - 41.0 °F 67% 30.22 in 10.0 mi NE 17.3 mph 21.9 mph 0.00 in   Partly Cloudy
10:55 AM 51.8 °F - 42.8 °F 71% 30.23 in 10.0 mi NE 16.1 mph 21.9 mph 0.00 in   Partly Cloudy
11:15 AM 51.8 °F - 39.2 °F 62% 30.23 in 9.0 mi NE 11.5 mph 24.2 mph 0.00 in   Scattered Clouds
11:35 AM 53.6 °F - 41.0 °F 62% 30.24 in 10.0 mi ENE 11.5 mph - 0.00 in   Mostly Cloudy
11:55 AM 51.8 °F - 39.2 °F 62% 30.24 in 10.0 mi ENE 15.0 mph - 0.00 in   Mostly Cloudy
12:15 PM 53.6 °F - 39.2 °F 58% 30.24 in 10.0 mi ENE 16.1 mph - 0.00 in   Mostly Cloudy
12:35 PM 51.8 °F - 39.2 °F 62% 30.25 in 10.0 mi ENE 19.6 mph 24.2 mph 0.00 in   Mostly Cloudy
12:55 PM 51.8 °F - 39.2 °F 62% 30.24 in 10.0 mi East 17.3 mph 24.2 mph 0.00 in   Mostly Cloudy
1:15 PM 51.8 °F - 39.2 °F 62% 30.24 in 10.0 mi East 17.3 mph 20.7 mph 0.00 in   Mostly Cloudy
1:35 PM 53.6 °F - 39.2 °F 58% 30.23 in 10.0 mi East 18.4 mph 24.2 mph 0.00 in   Mostly Cloudy
1:55 PM 53.6 °F - 39.2 °F 58% 30.22 in 10.0 mi ENE 17.3 mph 23.0 mph 0.00 in   Scattered Clouds
2:15 PM 53.6 °F - 39.2 °F 58% 30.21 in 10.0 mi East 18.4 mph 24.2 mph 0.00 in   Partly Cloudy
2:35 PM 53.6 °F - 39.2 °F 58% 30.20 in 10.0 mi ENE 17.3 mph 23.0 mph 0.00 in   Clear
2:55 PM 53.6 °F - 39.2 °F 58% 30.19 in 10.0 mi East 16.1 mph 20.7 mph 0.00 in   Clear
3:15 PM 53.6 °F - 39.2 °F 58% 30.18 in 10.0 mi East 15.0 mph - 0.00 in   Clear
3:35 PM 53.6 °F - 41.0 °F 62% 30.17 in 10.0 mi East 15.0 mph 23.0 mph 0.00 in   Clear
3:55 PM 53.6 °F - 39.2 °F 58% 30.16 in 10.0 mi ENE 15.0 mph 19.6 mph 0.00 in   Clear
4:15 PM 53.6 °F - 41.0 °F 62% 30.16 in 10.0 mi East 13.8 mph 21.9 mph 0.00 in   Clear
4:35 PM 53.6 °F - 41.0 °F 62% 30.15 in 10.0 mi East 16.1 mph 20.7 mph 0.00 in   Clear
4:55 PM 53.6 °F - 39.2 °F 58% 30.14 in 10.0 mi East 13.8 mph - 0.00 in   Clear
5:15 PM 51.8 °F - 41.0 °F 67% 30.14 in 10.0 mi East 15.0 mph - 0.00 in   Clear
5:35 PM 51.8 °F - 41.0 °F 67% 30.13 in 10.0 mi ENE 15.0 mph - 0.00 in   Clear
5:55 PM 51.8 °F - 42.8 °F 71% 30.12 in 10.0 mi East 16.1 mph 20.7 mph 0.00 in   Partly Cloudy
6:15 PM 51.8 °F - 42.8 °F 71% 30.12 in 10.0 mi East 15.0 mph - 0.00 in   Partly Cloudy
6:35 PM 51.8 °F - 42.8 °F 71% 30.11 in 10.0 mi East 16.1 mph - 0.00 in   Clear
6:55 PM 50.0 °F - 42.8 °F 76% 30.11 in 10.0 mi East 13.8 mph - 0.00 in   Clear
7:15 PM 50.0 °F - 41.0 °F 71% 30.11 in 10.0 mi East 13.8 mph 19.6 mph 0.00 in   Clear
7:35 PM 50.0 °F - 41.0 °F 71% 30.11 in 10.0 mi East 12.7 mph 18.4 mph 0.00 in   Partly Cloudy
7:55 PM 48.2 °F - 41.0 °F 76% 30.10 in 10.0 mi ENE 12.7 mph 20.7 mph 0.00 in   Clear
8:15 PM 48.2 °F - 39.2 °F 71% 30.10 in 10.0 mi East 11.5 mph 18.4 mph 0.00 in   Clear
8:35 PM 48.2 °F - 39.2 °F 71% 30.10 in 10.0 mi East 10.4 mph - 0.00 in   Clear
8:55 PM 48.2 °F - 39.2 °F 71% 30.10 in 10.0 mi East 11.5 mph - 0.00 in   Clear
9:15 PM 48.2 °F - 39.2 °F 71% 30.11 in 10.0 mi East 9.2 mph - 0.00 in   Clear
9:35 PM 48.2 °F - 37.4 °F 66% 30.10 in 10.0 mi East 11.5 mph - 0.00 in   Clear
9:55 PM 48.2 °F - 37.4 °F 66% 30.11 in 10.0 mi East 9.2 mph - 0.00 in   Clear
10:15 PM 48.2 °F - 39.2 °F 71% 30.10 in 10.0 mi East 11.5 mph - 0.00 in   Clear
10:35 PM 50.0 °F - 41.0 °F 71% 30.09 in 10.0 mi ENE 11.5 mph - 0.00 in   Clear
10:55 PM 50.0 °F - 39.2 °F 66% 30.08 in 10.0 mi ENE 8.1 mph - 0.00 in   Clear
11:15 PM 51.8 °F - 42.8 °F 71% 30.08 in 10.0 mi ENE 9.2 mph - 0.00 in   Mostly Cloudy
11:35 PM 51.8 °F - 41.0 °F 67% 30.06 in 10.0 mi ENE 10.4 mph - 0.00 in   Overcast
11:55 PM 51.8 °F - 42.8 °F 71% 30.05 in 10.0 mi ENE 11.5 mph - 0.00 in   Overcast